Regional Weather Roundup
Issued by NWS Upton, NY

Current Version | Previous Version | Text Only | Print | Product List | Glossary Off
Versions: 1 2 3 4 5 6 7 8 9 10 11 12 13 14 15 16 17 18 19 20 21 22 23 24 25 26 27
000 ASUS41 KOKX 301805 RWROKX REGIONAL WEATHER ROUNDUP NATIONAL WEATHER SERVICE NEW YORK NY 200 PM EDT TUE AUG 30 2016 NOTE: "FAIR" INDICATES FEW OR NO CLOUDS BELOW 12,000 FEET WITH NO SIGNIFICANT WEATHER AND/OR OBSTRUCTIONS TO VISIBILITY. NYZ071-072-176-178-NJZ106-104-301900- NEW YORK CITY METRO AREA CITY SKY/WX TMP DP RH WIND PRES REMARKS Central Park CLOUDY 79 61 53 CALM 30.15F LaGuardia APRT MOSUNNY 85 60 42 SW7 30.11F Kennedy INTL MOSUNNY 82 65 56 SW9 30.14F Newark/Liberty MOSUNNY 84 62 47 S7 30.11F Bronx Bot Gard N/A 79 61 53 S1 30.11F Wall St Helipt CLEAR 82 63 51 W9 30.13F Teterboro MOSUNNY 84 59 42 SW7 30.10F $$ NYZ177-179-078>081-301900- LONG ISLAND NEW YORK CITY SKY/WX TMP DP RH WIND PRES REMARKS Farmingdale SUNNY 82 61 48 S9 30.12F MacArthur/ISP MOSUNNY 81 64 56 S14 30.11F Shirley MOSUNNY 80 62 54 SW9 30.13F Riverhead NOT AVBL Westhampton PTSUNNY 78 60 53 S7 30.14F Southampton N/A 77 64 65 S7 30.09F Bridgehampton N/A 79 64 61 CALM 30.12F East Hampton FAIR 76 63 63 S5 30.12F Montauk N/A 77 63 61 VRB3 30.14F $$ NYZ052-065-067-301900- HUDSON VALLEY CITY SKY/WX TMP DP RH WIND PRES REMARKS White Plains MOSUNNY 82 59 45 NW7 30.13F Newburgh MOSUNNY 79 63 57 W7 30.15F Montgomery MOSUNNY 82 60 47 S9 30.12F Poughkeepsie SUNNY 80 59 48 S8 30.11F Albany MOSUNNY 79 56 45 W5 30.11F $$ NJZ001-105-106-008-010-013-015-019>022-104-301900- NEW JERSEY CITY SKY/WX TMP DP RH WIND PRES REMARKS Newark/Liberty MOSUNNY 84 62 47 S7 30.11F Teterboro MOSUNNY 84 59 42 SW7 30.10F Caldwell MOSUNNY 82 60 47 SE5 30.12F Morristown PTSUNNY 82 61 47 NW5 30.12F Somerville PTSUNNY 85 58 39 N3 30.09F Linden FAIR 84 61 46 S8 30.13F Sussex MOSUNNY 81 60 48 VRB3 30.13F Abdover N/A 80 60 50 SW3 30.14F Trenton PTSUNNY 87 61 41 VRB3 30.10F Millville PTSUNNY 85 69 58 W8 30.09F Atlantic City SUNNY 85 68 56 E9 30.10F Wrightstown SUNNY 83 64 52 NE6 30.07F Toms River CLOUDY 85 67 54 SE13G20 30.11F Belmar SUNNY 81 64 56 SE8 30.13F $$ PAZ047>061-062-071-301900- EASTERN PENNSYLVANIA CITY SKY/WX TMP DP RH WIND PRES REMARKS Philadelphia MOSUNNY 87 60 40 SE7 30.09F Allentown SUNNY 84 58 40 NW8 30.13F Scranton SUNNY 81 57 43 W6 30.15F $$ CTZ002-004>006-009-010-012-RIZ004-006-007-MAZ004-011-015-301900- SOUTHERN NEW ENGLAND IN CT CITY SKY/WX TMP DP RH WIND PRES REMARKS Bradley INTL PTSUNNY 81 57 43 SW8 30.11F Hartford MOSUNNY 83 57 41 VRB3 30.11F Danbury SUNNY 78 58 49 VRB5 30.14F Wtrbury/Oxford PTSUNNY 79 55 44 W8 30.17F Bridgeport SUNNY 81 56 42 SW9 30.12F Meriden MOSUNNY 83 56 39 NW6 30.12F New Haven SUNNY 79 60 52 S9 30.13F Chester FAIR 79 57 47 W5G12 30.13F Groton MOSUNNY 76 62 62 S8 30.12F Wilimantic MOSUNNY 80 57 45 SW8 30.13F IN RI CITY SKY/WX TMP DP RH WIND PRES REMARKS Providence PTSUNNY 79 59 50 SE13 30.12F Block Island MOSUNNY 77 59 53 VRB5 30.14F Westerly SUNNY 77 58 51 S12 30.13F IN MA CITY SKY/WX TMP DP RH WIND PRES REMARKS Boston MOSUNNY 74 59 59 SE15 30.10F Worcester SUNNY 75 52 44 SW9 30.14F Westfield MOSUNNY 82 56 40 SE12 30.10F Provincetown SUNNY 77 62 59 NE6 30.12F Nantucket SUNNY 72 58 61 S8 30.13F $$ ANZ330-335-338-340-345-350-353-355-301900- COASTAL MARINE OBSERVATIONS STATION/POSITION TIME SKY/WX TEMP WIND PRES VSBY WAVE AIR SEA DIR/SP/G HT/PER (UTC) (F) (DEG/KT/KT) (MB) (MI) (FT/S) NY HARB ENTRANCE 1650 75 78 100/ 6/ 8 1020.7 5/13 20S FIRE ISLAND 1650 75 76 90/ 4/ 6 1020.5 5/12 GREAT SOUTH BAY 1700 74 80 150/ 6/ 8 N/A 23 SSW MONTAUK P 1650 73 77 100/ 2/ 4 1021.3 4/12 15 E BARNEGAT LI 1700 77 N/A 5/13 HUDSON CANYON 1650 77 78 1019.9 5/12 KINGS POINT 1700 76 76 1020.3 EXECUTION ROCKS 1700 74 50/ 6/ 8 N/A CENTRAL LI SOUND 1700 72 77 60/ 2/ 4 N/A 0 EASTERN LI SOUND 1700 71 71 160/ 4/ 4 N/A ROBBINS REEF 1700 74 170/ 12/ 13 1019.9 $$ >>>>>>>>>>>>>>>>>>>>>>>>>>>> KEY <<<<<<<<<<<<<<<<<<<<<<<<<<< > < > SKY/WX - Sky Condition/Present Weather < > TMP - Temperature in Fahrenheit < > DP - Dew Point in Fahrenheit < > RH - Relative Humidity in Percent < > WIND - Direction (from) and Speed in MPH < > PRES - Mean Sea Level Pressure (inches of Hg) < > WCI - Wind Chill Index < > VSB - VISIBILITY IN MILES < > HX - HEAT INDEX < > TC - TEMPERATURE IN CELSIUS < > VRB - VARIABLE WIND DIRECTION < > < >>>>>>>>>>>>>>>>>>>>>>>>>>>> KEY <<<<<<<<<<<<<<<<<<<<<<<<<<<

USA.gov is the U.S. government's official web portal to all federal, state and local government web resources and services.